GFSNIL_con_3kmhel_000.txt.gz
Helicity
-82 -82 -64 -50 -45 -9 2 25 36 49 56 48 71 63 71 50 14 33 21 18 16 15
-84 -58 -43 -35 -5 13 19 44 67 76 69 63 62 66 69 29 50 37 34 29 23 14
-39 -36 -24 -5 44 48 58 40 88 75 75 104 89 64 62 45 60 45 37 34 25 16
20 32 24 35 47 48 115 119 72 60 82 76 88 79 62 34 40 55 39 19 9 6
78 91 102 94 66 117 84 162 128 79 55 46 68 89 70 55 43 47 35 28 12 11
128 183 215 234 211 326 220 217 296 540 438 150 97 82 65 55 53 49 27 17 18 10
153 198 319 321 367 366 462 480 582 696 547 240 -20 35 42 59 55 55 44 30 21 20
193 298 325 364 440 524 589 765 712 682 425 208 68 55 43 66 67 65 65 59 49 50
243 281 338 287 339 523 753 828 734 540 427 217 202 60 68 68 62 62 58 73 74 89
232 236 237 161 243 395 558 581 477 456 369 195 190 75 56 65 36 43 95 99 119 111
134 117 124 128 119 212 290 387 334 325 230 127 143 83 110 102 67 58 98 147 176 131
91 65 85 104 83 100 158 226 202 153 112 76 86 127 136 104 76 78 100 127 114 158
21 32 40 56 96 101 77 147 99 54 75 96 106 123 140 132 110 124 161 142 146 220
-56 -4 22 63 142 76 105 96 71 69 64 121 82 67 124 103 112 148 152 146 147 188

GFSNIL_con_3kmhel_003.txt.gz
Helicity
-1 -37 -41 -29 -33 -29 -1 32 88 61 53 44 78 66 72 65 32 47 30 21 13 24
-1 -49 -30 -23 -5 -6 16 38 66 73 69 78 81 79 79 44 83 52 46 20 28 -0
-3 -26 -32 22 16 27 52 43 102 85 94 150 213 169 118 62 74 69 37 17 18 14
52 47 26 40 61 96 66 113 157 153 170 224 157 212 183 58 50 94 58 28 16 9
126 117 134 148 192 185 132 203 217 235 249 280 232 196 287 87 76 82 60 38 31 17
133 186 232 266 291 259 265 308 397 369 497 423 292 172 156 184 104 69 48 40 39 30
158 191 261 337 393 369 348 431 519 617 670 489 432 206 147 187 139 73 57 68 48 50
173 180 257 358 458 403 395 462 582 671 676 498 445 317 202 131 220 91 83 74 71 53
254 277 342 422 420 311 279 309 415 569 531 531 346 327 313 229 213 109 102 89 82 80
341 394 437 333 290 224 209 275 373 490 487 465 350 345 242 264 209 129 102 122 103 104
388 333 279 228 164 99 64 131 246 308 379 384 258 262 240 251 207 146 97 115 90 95
240 206 161 98 54 23 43 92 280 287 427 268 182 201 229 188 181 125 90 83 111 125
111 117 105 47 30 51 88 114 250 212 230 132 107 179 181 159 130 82 93 142 125 121
98 74 39 50 78 130 166 214 243 140 89 69 88 115 136 122 82 44 102 121 139 114

GFSNIL_con_3kmhel_006.txt.gz
Helicity
88 20 -3 -2 7 28 21 0 169 116 143 124 125 121 138 125 99 73 70 54 60 63
92 57 20 9 -11 31 18 93 175 135 150 128 171 126 133 110 163 146 76 73 70 77
84 70 23 22 34 84 75 81 182 134 151 198 167 185 154 111 136 228 99 68 55 77
102 86 54 49 116 126 129 237 222 199 226 222 223 246 219 101 163 122 197 93 51 68
115 108 107 121 181 226 241 286 237 280 282 287 308 302 269 156 156 200 142 194 131 80
119 125 147 169 221 283 331 396 328 356 349 374 414 427 371 269 184 212 179 190 198 94
157 180 204 216 213 273 356 415 378 403 407 437 477 443 439 357 249 206 154 214 211 147
166 183 191 203 227 274 339 398 366 390 400 445 442 489 490 409 296 213 138 214 274 159
160 192 213 218 242 274 304 331 348 367 412 459 483 448 360 321 302 205 157 167 249 159
212 254 272 268 284 325 337 334 313 335 370 361 328 355 346 329 336 230 185 212 271 175
286 356 325 295 319 351 336 296 257 214 236 303 356 437 351 365 355 253 207 193 253 177
318 459 396 394 384 310 263 182 104 163 294 281 305 358 288 233 206 152 178 165 168 139
502 519 461 373 300 207 114 59 99 225 368 252 308 265 229 174 146 152 160 106 101 116
442 408 312 226 169 105 92 136 236 314 262 140 136 164 144 139 128 128 86 79 111 132

GFSNIL_con_3kmhel_009.txt.gz
Helicity
114 26 -17 28 65 145 111 89 126 152 176 143 114 110 100 100 84 151 151 106 105 86
99 60 18 -17 38 87 74 87 107 151 193 167 121 150 143 107 119 80 108 99 124 119
107 76 27 12 4 85 98 154 169 201 213 216 193 211 184 181 117 87 69 94 93 118
87 74 55 25 34 104 132 228 262 264 247 243 251 229 227 207 217 130 84 75 93 101
86 73 75 61 54 105 198 253 327 336 294 296 278 312 336 289 268 188 129 90 105 104
78 73 102 102 89 137 195 286 405 450 453 432 393 374 375 346 299 252 149 125 101 117
106 111 138 141 149 190 255 329 393 469 497 489 432 405 422 390 315 257 177 142 142 137
124 108 113 126 149 195 298 370 430 517 521 531 479 429 478 455 400 301 194 143 165 154
112 113 108 157 174 228 241 341 435 460 474 470 413 371 432 426 388 294 191 167 149 146
148 139 164 214 207 235 263 329 366 414 415 353 372 352 351 355 329 305 229 175 140 169
210 163 223 278 276 293 334 363 405 378 357 325 328 293 238 245 321 290 237 245 227 211
316 255 269 337 303 378 417 434 374 352 324 339 271 238 197 213 222 242 240 248 217 159
380 328 408 468 477 502 405 263 328 303 238 217 220 199 131 137 186 171 165 144 137 135
465 524 631 651 547 433 298 274 234 179 210 254 163 152 165 136 165 137 131 131 87 45

GFSNIL_con_3kmhel_015.txt.gz
Helicity
254 245 184 137 87 37 12 -17 -20 40 57 78 80 68 72 76 82 70 54 64 63 73
254 239 209 145 97 46 -1 -57 -35 36 75 86 96 94 91 91 90 103 91 62 52 54
291 241 227 150 78 59 -10 -48 -24 24 73 90 112 113 129 109 93 122 115 105 96 78
274 214 224 141 92 70 8 -31 2 39 93 112 127 130 138 119 138 142 140 133 133 96
302 234 195 124 81 73 31 26 32 37 65 119 132 153 164 157 152 152 145 145 156 139
265 259 208 119 85 68 47 36 41 45 78 118 142 168 181 188 197 186 162 174 176 162
255 256 227 125 92 64 78 80 86 115 119 151 199 200 216 260 246 229 183 186 177 189
232 214 190 111 94 85 90 94 133 175 169 186 234 256 255 289 313 291 253 191 172 142
263 215 197 132 98 114 134 140 172 185 230 256 285 290 308 351 378 332 338 266 188 106
274 229 208 175 139 122 154 207 195 218 264 271 289 255 310 395 330 283 291 217 205 90
304 249 257 215 167 152 196 226 248 241 235 231 220 313 316 343 332 98 192 193 140 143
292 273 280 277 225 171 200 233 256 247 220 193 208 274 257 236 128 211 184 105 148 154
329 302 304 311 280 246 210 207 272 210 186 194 225 277 232 309 227 238 148 142 133 145
351 366 366 341 336 346 296 275 220 199 191 187 207 249 247 258 243 175 141 140 152 91

GFSNIL_con_3kmhel_021.txt.gz
Helicity
90 80 93 85 82 58 27 16 26 -9 -51 -56 -50 -35 -33 -35 -8 23 28 37 36 40
120 121 108 112 115 79 55 1 14 -5 -38 -55 -51 -32 -13 -24 6 29 44 51 57 52
134 117 121 125 134 108 97 53 11 -12 -41 -49 -50 -35 -2 -9 17 53 64 69 95 94
183 164 142 138 139 130 123 96 56 10 -24 -43 -41 -33 -5 6 29 57 71 85 102 109
224 202 192 189 175 166 165 129 105 53 9 -37 -29 -26 -7 20 41 61 76 92 106 117
193 204 222 221 196 170 158 140 96 74 39 -9 -14 -11 -18 16 51 67 76 98 117 128
264 260 253 251 193 189 188 168 116 110 85 31 9 2 9 20 45 56 75 89 106 131
249 234 231 236 213 206 184 185 159 132 111 82 36 6 18 52 62 68 68 70 141 153
215 235 259 218 191 170 172 168 148 119 135 121 72 31 68 104 95 100 74 102 138 140
213 220 244 255 238 210 195 184 176 135 146 108 94 111 120 135 93 106 104 127 158 158
277 256 246 260 241 228 216 197 205 169 159 143 110 143 158 178 124 123 100 119 141 160
323 308 278 266 254 262 254 208 164 164 170 167 124 166 208 249 131 123 140 143 141 139
246 274 260 269 229 225 258 284 237 196 198 148 105 145 213 244 154 151 199 193 153 160
223 234 207 235 235 217 195 174 246 290 261 228 167 143 241 265 200 211 255 228 228 219

GFSNIL_con_3kmhel_024.txt.gz
Helicity
42 26 15 23 12 37 25 34 25 36 -19 -41 -52 -55 -60 -46 -16 7 22 37 27 31
69 54 34 30 54 24 33 22 26 20 -5 -25 -36 -41 -53 -57 -31 -8 16 38 49 39
92 92 72 88 59 54 41 40 47 29 6 -7 -24 -32 -43 -47 -33 -12 13 42 76 78
135 104 79 71 93 89 63 70 54 67 24 16 -7 -20 -27 -36 -17 8 26 51 89 106
175 172 131 124 108 111 105 92 92 87 61 32 12 2 5 -21 -11 18 44 67 78 102
99 110 134 154 96 85 98 118 82 78 92 78 51 38 22 -18 -15 1 21 46 71 81
129 160 152 165 163 136 136 125 116 129 122 103 76 53 32 1 -1 11 15 43 64 113
100 127 139 159 161 127 135 149 156 151 119 120 92 59 58 36 25 33 26 43 60 109
66 94 118 146 166 126 123 154 156 175 178 164 117 95 117 92 83 86 86 97 95 123
113 98 118 126 155 154 154 156 148 181 204 198 154 142 168 162 114 117 133 124 120 147
87 135 128 142 156 167 167 182 200 205 204 209 194 186 216 190 105 112 121 126 130 175
87 103 109 137 168 178 167 175 209 211 218 212 181 205 237 269 148 72 132 151 131 161
105 134 166 178 167 190 193 173 163 178 194 210 189 218 296 328 166 137 179 188 202 216
128 123 141 169 182 190 180 137 163 164 181 158 189 174 323 387 289 248 233 235 215 248

GFSNIL_con_3kmhel_027.txt.gz
Helicity
74 19 7 30 30 32 40 49 62 152 76 7 -20 -49 -34 -24 -14 -0 11 15 6 5
76 36 25 30 45 43 32 12 98 130 81 23 -23 -36 -35 -33 -0 -15 15 19 23 13
99 71 54 63 66 69 45 43 88 147 89 45 17 -11 -13 -19 -23 2 9 19 68 50
126 117 97 98 109 81 93 90 53 148 119 90 46 36 26 -20 -1 34 23 38 83 99
181 159 158 127 127 139 111 105 122 118 160 121 89 74 56 37 -0 58 50 65 90 134
135 163 194 201 166 157 135 117 115 117 146 158 139 123 108 74 42 64 83 78 93 125
101 129 155 191 203 193 179 139 133 147 152 155 155 161 169 148 110 103 107 122 122 142
93 38 60 118 176 173 160 170 157 171 188 188 153 141 153 119 94 93 113 123 146 134
119 120 96 79 141 180 154 184 197 210 251 251 227 191 203 189 151 102 70 94 147 176
149 120 124 101 108 178 171 157 210 233 251 278 279 260 315 312 178 137 145 153 181 197
155 166 174 133 138 178 162 163 196 216 235 257 310 322 314 403 283 181 137 151 181 212
182 180 177 153 142 181 194 172 190 209 230 263 250 311 305 336 300 233 184 182 195 189
194 157 160 123 130 141 137 134 134 144 198 232 242 249 302 337 269 258 260 236 253 259
158 182 153 134 127 127 126 111 122 115 154 162 177 202 293 377 300 263 309 304 288 351

GFSNIL_con_3kmhel_030.txt.gz
Helicity
29 22 -39 -33 48 12 75 85 136 136 146 129 72 4 -16 21 -24 0 -2 -6 -13 -23
78 68 23 4 -16 36 9 43 130 226 194 166 117 65 -6 -10 16 -15 39 20 14 -1
112 136 76 40 8 17 59 2 64 244 212 187 126 94 40 12 -22 34 33 39 58 47
109 108 104 63 55 41 29 48 -9 159 219 191 152 114 74 56 32 43 68 69 83 115
119 118 113 107 94 97 78 59 68 117 203 238 195 151 121 98 54 68 100 118 129 180
94 104 106 118 122 127 132 114 120 111 199 221 196 180 151 122 78 27 57 99 134 171
73 77 78 96 115 137 167 174 171 174 199 245 266 215 200 173 133 97 59 100 123 148
115 94 96 98 90 102 129 169 190 191 201 242 253 259 247 237 212 163 129 106 173 192
205 152 127 116 125 133 143 127 143 187 206 248 273 292 317 311 290 250 183 141 124 197
262 276 253 170 148 155 157 140 144 165 202 246 306 344 392 376 314 293 265 221 198 188
259 349 367 276 182 143 176 195 168 174 199 205 263 330 396 430 339 330 319 289 250 235
244 322 402 364 290 184 152 179 190 169 170 206 231 283 334 392 342 322 352 388 338 298
181 259 327 386 321 240 173 145 159 143 159 161 170 194 268 375 309 276 309 332 355 374
180 200 261 296 281 237 190 146 143 133 140 114 125 142 203 290 281 309 266 271 325 372

GFSNIL_con_3kmhel_033.txt.gz
Helicity
18 -3 11 -20 -10 31 114 134 119 107 130 131 89 60 40 12 -8 2 -1 -17 -21 -22
65 21 31 12 -35 -5 66 130 148 116 158 152 136 86 66 24 8 11 19 10 -15 -31
105 101 40 17 -23 -23 21 77 118 165 195 223 202 129 87 33 10 19 37 31 31 -15
47 75 91 56 21 -12 -1 21 71 160 209 258 234 189 137 90 43 36 31 60 87 45
33 46 99 104 53 38 3 43 30 114 172 204 227 214 204 146 94 67 73 97 115 97
51 52 61 92 100 42 56 23 47 71 181 251 247 240 197 186 165 111 94 119 154 153
96 81 83 74 71 79 61 76 64 86 163 250 333 297 267 218 183 155 119 120 138 182
146 139 117 112 93 94 93 80 83 96 106 192 264 349 369 329 283 232 178 143 184 220
158 145 148 135 134 120 106 105 119 148 168 179 229 280 358 369 332 307 275 229 193 205
186 182 180 161 149 142 122 117 117 137 157 207 225 260 317 356 314 300 327 307 268 240
270 266 243 244 229 172 139 136 139 128 142 159 211 234 270 308 301 283 275 299 313 312
342 326 318 329 341 307 235 168 128 106 112 124 146 203 237 265 246 258 316 329 329 349
295 314 362 394 407 422 380 302 211 149 127 101 86 145 228 272 247 221 243 261 300 344
244 275 316 352 391 432 414 349 258 178 123 107 99 149 196 235 250 254 236 246 259 270

GFSNIL_con_3kmhel_036.txt.gz
Helicity
74 24 4 -10 -1 23 49 64 75 95 78 65 52 24 2 -7 -19 -13 -18 -16 -8 -6
78 41 28 10 -8 3 44 46 71 116 119 79 73 53 27 -1 -12 -21 -12 -19 -20 -17
103 86 55 12 -1 -3 5 37 50 92 111 95 81 75 76 29 0 3 -24 -17 -15 -14
96 79 61 44 17 8 -6 12 56 79 108 109 115 121 110 84 53 40 15 4 2 -9
71 44 39 46 28 15 4 -14 18 71 102 145 140 139 163 139 98 85 52 34 29 9
63 53 40 50 49 20 12 -2 7 42 116 153 160 171 171 158 150 140 129 102 73 46
94 86 75 55 51 39 16 10 14 48 82 114 155 181 183 171 143 124 112 132 132 103
136 123 101 75 68 63 58 39 52 71 105 127 159 178 203 210 207 172 139 124 148 163
145 146 146 122 95 90 88 93 70 86 107 175 191 214 317 314 279 253 227 205 199 199
155 142 152 156 134 122 123 111 118 119 109 136 160 201 271 323 303 291 299 286 239 202
108 102 96 96 114 99 91 107 116 114 128 115 115 139 197 243 238 202 211 233 250 262
196 160 129 127 128 127 106 83 82 89 99 110 101 136 156 183 168 176 205 222 252 285
332 260 219 196 195 203 202 197 185 132 111 95 82 155 149 150 139 117 165 187 224 275
327 319 297 318 305 286 281 262 234 204 182 144 135 117 134 143 146 152 149 155 156 190

GFSNIL_con_3kmhel_042.txt.gz
Helicity
88 81 66 54 52 48 63 30 -13 -2 8 10 -3 -19 -18 -18 -4 4 4 12 19 7
86 99 64 57 33 29 27 6 -17 -5 12 10 9 2 -11 -17 -15 -12 1 13 9 12
169 125 85 64 35 17 6 -18 -35 -21 -4 6 16 12 1 -17 -35 -32 -22 -17 2 12
191 169 168 80 49 34 1 -4 -13 -21 -12 7 18 30 25 -7 -22 -25 -27 -36 -18 3
216 224 177 128 61 33 25 17 15 3 -16 -11 6 25 34 17 -8 -3 -12 -5 -14 7
211 221 199 147 114 70 28 13 14 8 0 -7 -8 4 17 27 26 18 14 11 9 19
199 209 224 211 198 80 45 17 21 14 19 4 -11 -11 -7 3 18 36 36 36 32 20
221 224 226 203 142 113 57 40 57 46 30 20 -5 -26 -15 -3 8 19 24 30 43 50
223 228 193 182 141 114 62 57 57 48 53 52 32 21 37 29 17 22 28 28 28 39
206 187 164 151 157 52 59 91 59 46 51 54 67 74 93 111 70 42 55 67 56 32
154 139 134 137 106 90 35 63 64 56 55 55 57 71 100 124 111 81 99 107 106 102
146 120 122 113 90 88 86 95 70 75 76 77 47 81 105 113 85 81 85 87 96 99
162 154 150 135 126 129 126 102 115 65 70 85 81 99 104 140 119 45 29 50 67 104
160 160 149 136 132 134 123 107 110 117 109 62 62 66 102 124 109 56 37 64 101 139

GFSNIL_con_3kmhel_045.txt.gz
Helicity
-25 -29 -18 -10 -3 12 24 35 23 22 6 -9 -19 -15 -12 -8 0 -3 2 15 18 23
-23 -23 -40 -4 4 11 25 17 10 3 -7 -15 -21 -14 -16 -19 -14 -13 -5 3 11 24
8 1 5 -3 14 26 35 9 -5 -4 -7 -17 -17 -22 -21 -33 -27 -25 -20 -12 -3 15
27 5 35 3 30 35 51 7 -2 5 -4 -17 -13 -14 -29 -36 -37 -45 -38 -29 -14 8
106 98 89 103 74 71 75 54 6 11 11 -2 -6 -10 -25 -48 -48 -42 -42 -36 -29 -6
108 94 94 103 99 95 87 53 14 4 4 14 3 -2 -18 -33 -47 -49 -40 -37 -30 -14
135 130 105 113 115 102 101 64 23 20 4 7 -7 -17 -20 -28 -29 -35 -45 -39 -28 -17
144 136 125 124 123 110 104 69 44 17 -3 -6 -24 -29 -8 -4 -7 -7 -11 -20 -25 -25
169 161 139 134 133 121 99 88 60 30 -2 -2 -19 -15 21 21 3 3 -3 -7 -10 -11
170 158 139 134 134 115 93 75 63 29 11 -4 -4 -2 24 45 3 -13 -17 -14 -20 -30
157 143 128 120 113 103 76 68 64 26 23 0 -22 -15 2 0 -9 -26 -12 -13 -16 -28
155 113 102 92 84 73 63 52 40 29 1 9 6 30 47 19 -22 -23 -1 4 1 -4
116 99 91 88 80 83 76 45 35 15 -21 -5 0 -4 43 50 -38 -35 -28 -24 -8 22
100 87 79 80 73 55 42 35 26 12 6 -20 -11 -10 28 63 8 -22 -38 -46 9 49

GFSNIL_con_3kmhel_048.txt.gz
Helicity
-33 -31 -32 -27 7 -2 -3 -13 -23 -21 -3 1 -4 -2 -15 -14 -5 -4 7 16 27 31
-20 -21 -37 -8 -20 -1 3 9 -2 -17 -4 -1 0 -3 -22 -21 -24 -13 -1 4 13 34
-13 -10 5 -1 -18 -12 -1 0 11 -13 -9 -5 0 -1 -13 -38 -34 -20 -15 1 2 22
2 -12 13 -25 -26 -28 -13 -3 -5 -10 -16 0 4 9 6 -20 -30 -33 -26 -9 0 14
83 58 47 -18 -35 -12 -24 -8 -5 -24 -10 -4 1 6 14 0 -28 -24 -33 -27 -14 -1
60 58 64 39 15 23 -4 -3 4 -2 -6 -3 3 13 18 9 -19 -31 -34 -41 -38 -20
102 73 59 69 67 37 49 49 33 20 4 -9 -6 2 7 11 -7 -26 -38 -44 -41 -34
134 118 104 92 92 71 67 57 45 43 9 -8 -15 -17 9 11 4 -10 -21 -38 -46 -36
137 151 142 133 122 106 75 70 63 56 37 7 -19 -11 8 8 -6 -2 -5 -10 -14 -15
165 161 157 153 140 128 95 86 78 67 57 40 12 -8 19 41 -3 -17 -15 -11 -10 -6
180 167 180 171 157 145 109 110 105 83 69 51 24 18 22 37 7 -18 -19 -21 -20 -20
186 151 153 158 161 138 119 121 99 82 69 48 11 36 48 41 -33 -32 -25 -27 -20 -13
152 152 154 171 173 155 134 113 100 71 58 28 -11 -9 17 33 -55 -46 -46 -55 -47 -30
125 162 141 124 133 130 106 97 82 60 50 19 -13 -55 -6 19 -35 -27 -14 -21 -30 -44